User: anonymous   Login
Location: Solon
(41.3849°N, 81.4081°W)
Time: 20:02:05
(UTC-04:00)
Language:

CZ-2C R/B - Orbit

View from above orbital plane
View from above orbital plane
View from above satellite
View from above satellite

Ground track
Ground track

The orbit data is extracted from the following two-line orbital elements,

1 28480U 04046B   17177.29733432 +.00000022 +00000-0 +23998-4 0  9991
2 28480 098.1963 272.9015 0141715 197.1893 230.0840 14.25641168655510
Epoch (UTC): 26 June 2017 07:08:09
Eccentricity: 0.0141715
inclination: 98.1963°
perigee height: 704 km
apogee height: 908 km
right ascension of ascending node: 272.9015°
argument of perigee: 197.1893°
revolutions per day: 14.25641168
mean anomaly at epoch: 230.0840°
orbit number at epoch: 65551

The dashed part of the orbit path shows where the satellite is in the earth's shadow,  

DLR